Voltar ao catálogo

NILESAT 301

AtivoComunicaçõesGEO
NORAD 52817·PAYLOAD·🇪🇬 Egypt

Lançado Jun 8, 2022 de Cape Canaveral Space Force Station

Loading…

TLE

AtualizadoSource: Space-Track

Época: Sep 14, 2026, 08:38 UTC

1 52817U 22061A   26257.35991840 -.00000066  00000-0  00000-0 0  9998
2 52817   0.0554   2.8209 0001300 141.1712 331.9128  1.00270551 15634

Acompanhe NILESAT 301 em tempo real com AllMySat

Download on the App Store